User: anonymous   Login
Location: Unspecified
(0.0000°N, 0.0000°E)
Time: 09:29:25
(UTC+00:00)
Language:

IDEFIX/ARIANE 42P - Orbit

View from above orbital plane
View from above orbital plane
View from above satellite
View from above satellite

Ground track
Ground track

The orbit data is extracted from the following two-line orbital elements,

1 27422U 02021B   17327.56499116 -.00000017 +00000-0 +93833-5 0  9993
2 27422 098.2394 319.1021 0013253 121.3006 238.9477 14.29259088811332
Epoch (UTC): 23 November 2017 13:33:35
Eccentricity: 0.0013253
inclination: 98.2394°
perigee height: 785 km
apogee height: 804 km
right ascension of ascending node: 319.1021°
argument of perigee: 121.3006°
revolutions per day: 14.29259088
mean anomaly at epoch: 238.9477°
orbit number at epoch: 81133

The dashed part of the orbit path shows where the satellite is in the earth's shadow,  

DLR